User: anonymous   Login
Location: Unspecified
(0.0000°N, 0.0000°E)
Time: 14:39:24
(UTC+00:00)
Language:

BIROS - Orbit

View from above orbital plane
View from above orbital plane
View from above satellite
View from above satellite

Ground track
Ground track

The orbit data is extracted from the following two-line orbital elements,

1 41604U 16040F   21175.16865221  .00000643  00000-0  30540-4 0  9992
2 41604  97.2619 227.3883 0010967 323.8954  36.1541 15.22607813277923
Epoch (UTC): 24 June 2021 04:02:51
Eccentricity: 0.0010967
inclination: 97.2619°
perigee height: 490 km
apogee height: 505 km
right ascension of ascending node: 227.3883°
argument of perigee: 323.8954°
revolutions per day: 15.22607813
mean anomaly at epoch: 36.1541°
orbit number at epoch: 27792

The dashed part of the orbit path shows where the satellite is in the earth's shadow,  

DLR